Weather History for Medford, OR

Change the Weather History Date:

Friday, May 24, 2013

  Actual Average Record
Temperature  
Mean Temperature 55 °F 62 °F  
Max Temperature 64 °F 76 °F 98 °F (1928)
Min Temperature 45 °F 48 °F 31 °F (1918)
Degree Days  
Heating Degree Days 10 5  
Month to date heating degree days 97 167  
Since 1 July heating degree days 3968 4166  
Cooling Degree Days 0 2  
Month to date cooling degree days 33 24  
Year to date cooling degree days 35 27  
Growing Degree Days 6 (Base 50)    
Moisture  
Dew Point 36 °F    
Average Humidity 50    
Maximum Humidity 66    
Minimum Humidity 34    
Precipitation  
Precipitation T in 0.04 in 1.21 in (1945)
Month to date precipitation 0.38 1.03  
Year to date precipitation 3.43 8.56  
Snow  
Snow 0.00 in 0.00 in - ()
Month to date snowfall 0.0 0.0  
Since 1 July snowfall 1.7 4.1  
Snow Depth 0.00 in    
Sea Level Pressure  
Sea Level Pressure 30.06 in    
Wind  
Wind Speed 5 mph (WNW)    
Max Wind Speed 14 mph    
Max Gust Speed 18 mph    
Visibility 10 miles    
Events      
T = Trace of Precipitation, MM = Missing Value Source: NWS Daily Summary

Daily Weather History Graph

Daily Weather History Graph

Search for Another Location

Airport:

Trip Planner

Search our weather history database for the weather conditions in past years. The results will help you decide how hot, cold, wet, or windy it might be!

Date:

Astronomy

May. 24, 2013 Rise Set
Actual Time 5:41 AM PDT 8:35 PM PDT
Civil Twilight 5:08 AM PDT 9:08 PM PDT
Nautical Twilight 4:26 AM PDT 9:50 PM PDT
Astronomical Twilight 3:37 AM PDT 10:40 PM PDT
Moon 8:23 PM PDT (5/24) 5:19 AM PDT (5/24)
Length of Visible Light 16h 00m
Length of Day
14h 53m
Full, 100% of the Moon is Illuminated
May 24
Full
May 24
Full
May 31
Last Quarter
Jun 8
New
Jun 16
First Quarter

Hourly Weather History & Observations

Time (PDT) Temp. Dew Point Humidity Pressure Visibility Wind Dir Wind Speed Gust Speed Precip Events Conditions
12:53 AM 51.1 °F 34.0 °F 52% 30.06 in 10.0 mi WSW 3.5 mph - N/A   Overcast
1:53 AM 50.0 °F 34.0 °F 54% 30.06 in 10.0 mi SSW 5.8 mph - N/A   Overcast
2:53 AM 48.9 °F 35.1 °F 59% 30.06 in 10.0 mi West 3.5 mph - N/A   Overcast
3:53 AM 50.0 °F 36.0 °F 59% 30.06 in 10.0 mi South 5.8 mph - N/A   Overcast
4:53 AM 48.9 °F 36.0 °F 61% 30.05 in 10.0 mi South 4.6 mph - N/A   Overcast
5:53 AM 48.9 °F 37.0 °F 64% 30.06 in 10.0 mi West 3.5 mph - N/A   Overcast
6:53 AM 48.9 °F 37.9 °F 66% 30.08 in 10.0 mi Calm Calm - N/A   Scattered Clouds
7:53 AM 51.1 °F 37.0 °F 59% 30.08 in 10.0 mi NW 4.6 mph - 0.00 in   Mostly Cloudy
8:53 AM 51.1 °F 37.9 °F 61% 30.09 in 10.0 mi Variable 6.9 mph - N/A   Partly Cloudy
9:09 AM 51.8 °F 37.4 °F 58% 30.10 in 10.0 mi NW 13.8 mph - N/A   Mostly Cloudy
9:23 AM 51.8 °F 37.4 °F 58% 30.09 in 10.0 mi WNW 11.5 mph - N/A   Mostly Cloudy
9:53 AM 53.1 °F 37.9 °F 57% 30.09 in 10.0 mi WNW 8.1 mph - N/A   Mostly Cloudy
10:53 AM 55.9 °F 37.0 °F 49% 30.08 in 10.0 mi North 4.6 mph - N/A   Mostly Cloudy
11:53 AM 57.9 °F 35.1 °F 42% 30.07 in 10.0 mi Variable 4.6 mph - N/A   Mostly Cloudy
12:53 PM 61.0 °F 35.1 °F 38% 30.05 in 10.0 mi NW 8.1 mph - N/A   Mostly Cloudy
1:53 PM 62.1 °F 35.1 °F 37% 30.04 in 10.0 mi NNW 5.8 mph - N/A   Mostly Cloudy
2:53 PM 64.0 °F 36.0 °F 35% 30.04 in 10.0 mi NW 12.7 mph 17.3 mph N/A   Scattered Clouds
3:53 PM 62.1 °F 35.1 °F 37% 30.03 in 10.0 mi WNW 8.1 mph - N/A   Scattered Clouds
4:53 PM 62.1 °F 35.1 °F 37% 30.03 in 10.0 mi West 9.2 mph - N/A   Scattered Clouds
5:53 PM 62.1 °F 36.0 °F 38% 30.03 in 10.0 mi WNW 6.9 mph - N/A   Mostly Cloudy
6:53 PM 59.0 °F 37.9 °F 46% 30.03 in 10.0 mi North 10.4 mph - N/A   Scattered Clouds
7:53 PM 57.9 °F 37.0 °F 46% 30.03 in 10.0 mi North 8.1 mph - N/A   Scattered Clouds
8:53 PM 55.9 °F 37.9 °F 51% 30.04 in 10.0 mi NNW 5.8 mph - N/A   Scattered Clouds
9:53 PM 55.0 °F 37.0 °F 51% 30.05 in 10.0 mi NW 3.5 mph - N/A   Clear
10:53 PM 52.0 °F 37.0 °F 57% 30.06 in 10.0 mi Calm Calm - N/A   Partly Cloudy
11:53 PM 48.9 °F 37.0 °F 64% 30.06 in 10.0 mi Calm Calm - N/A   Scattered Clouds